Dewpoint
23 17 18 18 20 19 17 16 15 16 23 24 24 22 19 22 23 24 24 24 28 35 35 33 36 37 39 47 48 48 48 46 43 41 38 37 37 37 37 38 41 43 42 43
18 19 21 23 23 20 20 17 18 21 24 26 24 20 20 23 25 26 26 27 29 29 30 34 37 40 41 42 42 40 38 37 36 35 36 38 39 39 41 41 40 39 40 40
17 19 23 23 25 23 23 21 23 23 25 27 24 21 20 22 24 25 26 27 28 30 30 32 34 37 39 40 39 37 38 39 41 41 39 39 39 39 36 37 36 36 36 37
21 24 26 25 25 26 20 26 28 26 24 16 26 16 21 20 22 24 26 28 29 30 30 32 35 37 40 41 41 40 40 40 41 41 38 39 37 36 37 36 35 37 36 36
21 25 26 25 25 28 27 30 29 29 25 23 23 18 22 22 21 24 28 29 31 32 33 35 37 38 40 42 42 42 40 40 41 41 39 38 38 37 37 38 38 36 33 32
26 29 29 29 28 28 31 29 28 29 28 23 25 23 23 23 24 27 30 32 35 36 35 36 38 38 39 42 42 41 39 38 40 41 40 39 39 40 38 36 34 30 31 31
26 27 30 32 26 30 28 26 21 24 23 21 25 22 26 28 29 30 31 34 37 38 38 37 37 37 38 40 40 39 39 38 38 40 39 39 38 37 36 35 32 33 31 31
22 22 29 32 30 28 29 28 25 19 19 20 26 19 25 29 30 31 32 34 35 36 37 36 36 37 38 40 41 41 40 38 36 36 37 36 37 38 37 34 34 34 34 34
25 24 31 32 32 31 28 28 30 28 28 27 22 25 30 30 30 31 31 32 33 36 37 36 36 37 39 40 40 42 41 39 38 37 39 39 39 39 36 36 35 33 34 34
31 25 28 30 32 32 30 31 27 26 23 14 12 18 17 29 30 30 30 32 34 36 36 36 36 37 38 39 41 42 40 39 41 40 40 39 39 36 36 33 32 33 34 37
29 28 25 29 29 29 30 29 29 27 28 20 17 13 29 27 29 30 30 33 34 36 36 36 37 38 38 41 40 39 40 41 39 38 39 38 37 35 32 31 32 34 36 35
34 31 20 21 31 33 30 28 26 21 20 26 26 19 27 28 31 31 32 35 35 36 34 35 37 38 39 38 36 36 38 37 37 37 35 36 35 33 31 31 32 33 32 32
33 29 17 17 27 30 30 29 30 29 30 26 25 21 26 29 29 29 33 34 35 34 34 35 37 38 37 35 35 35 35 36 35 33 33 34 34 33 32 33 34 34 34 34
35 30 22 11 14 22 22 23 25 26 27 24 23 23 24 24 27 30 33 35 34 34 34 37 38 37 35 33 32 35 34 32 32 34 34 34 36 37 38 39 36 34 33 33
35 27 27 26 25 25 27 26 25 25 27 26 26 23 24 26 29 31 35 34 34 34 36 37 36 33 29 31 35 33 30 31 34 34 32 35 35 34 35 32 29 28 28 27
36 30 32 28 28 27 27 26 26 28 28 27 27 27 28 29 33 35 34 34 34 37 36 35 32 28 28 33 33 29 29 31 32 30 30 30 29 28 28 26 24 22 21 19
36 35 31 26 28 28 25 27 26 28 27 27 25 25 29 31 33 34 35 35 37 37 35 32 30 28 32 34 29 29 29 29 30 29 28 28 29 26 23 21 18 18 19 19
36 36 33 30 30 23 26 28 27 26 27 26 27 28 32 33 35 34 37 37 37 37 30 27 27 29 33 30 28 29 26 26 28 28 28 25 24 23 20 17 17 18 18 19
37 36 31 29 26 25 25 26 27 26 27 29 29 32 34 36 35 32 38 37 38 34 28 27 27 31 33 29 27 29 29 27 27 27 26 26 23 20 16 17 18 18 18 19
35 35 35 30 26 22 25 28 30 32 25 34 35 36 37 39 35 34 37 37 33 30 28 26 27 32 32 28 28 29 27 25 25 25 26 25 22 18 17 19 19 20 19 19
32 32 31 29 28 28 30 30 32 28 30 35 37 37 39 38 37 38 38 35 29 29 28 26 28 30 29 29 30 29 23 20 22 23 26 25 21 18 19 20 21 20 20 21
26 30 29 30 27 26 30 30 32 35 36 37 39 39 39 38 37 36 32 29 29 28 28 26 26 26 28 29 30 27 22 20 22 25 27 24 20 20 20 21 21 21 21 21
28 29 27 29 29 31 33 33 36 37 38 40 40 39 36 33 30 29 27 26 25 27 27 27 26 26 27 27 29 28 26 26 27 29 31 25 21 21 22 22 22 22 20 21
32 33 32 32 31 32 35 37 39 41 40 40 38 34 32 29 27 26 23 22 25 27 28 27 27 26 26 27 30 31 31 31 31 27 29 24 22 22 22 23 21 19 20 22
34 34 33 33 35 36 36 41 41 40 40 35 32 29 26 22 21 21 22 23 23 25 26 26 23 23 23 25 26 28 27 25 24 24 25 24 24 25 24 22 20 20 21 22
35 34 34 34 37 39 40 40 41 37 31 29 26 20 19 19 18 20 20 20 22 24 26 24 22 22 23 24 26 25 24 25 25 24 24 25 26 25 24 21 20 22 21 21
Wind_Speed
5 3 7 8 7 5 1 2 3 1 3 9 1 3 8 10 9 7 6 6 8 10 6 4 5 6 4 4 3 3 4 3 1 2 3 4 4 5 7 7 9 11 11 12
4 8 6 5 5 1 2 3 1 1 0 5 3 3 8 11 12 10 11 12 11 12 13 12 12 12 11 10 8 6 5 5 4 2 3 4 8 7 8 6 10 10 13 13
4 6 3 1 4 4 1 1 4 6 7 3 2 7 6 7 11 12 13 14 14 12 11 11 12 12 11 10 8 7 7 8 9 6 5 5 4 6 7 11 12 12 13 14
8 3 3 2 4 7 3 2 10 8 7 4 2 5 6 5 10 10 9 10 10 10 9 10 9 10 11 12 12 12 10 9 8 7 6 7 7 9 10 12 13 17 15 15
4 4 3 4 4 5 4 8 6 3 6 4 3 7 8 4 7 8 11 10 10 9 9 9 10 11 12 11 10 8 7 8 7 6 6 6 5 6 7 9 16 18 15 16
7 2 4 5 2 2 6 4 1 1 2 5 1 5 7 1 3 6 8 11 11 10 8 8 8 8 9 8 7 7 8 7 7 9 8 10 11 10 11 15 18 18 19 19
4 4 2 7 4 4 9 3 2 2 5 0 1 6 8 6 6 8 9 11 11 10 10 8 7 6 6 8 9 8 10 11 10 8 6 4 10 12 15 18 19 23 22 20
3 3 8 10 5 6 7 6 3 3 2 3 3 4 8 9 8 10 9 8 7 8 7 7 6 8 8 7 8 9 11 11 9 9 10 11 12 14 17 20 21 21 20 17
3 3 4 7 6 4 3 4 1 2 0 3 1 3 8 10 5 7 8 7 5 2 3 6 8 8 9 9 8 9 13 15 14 13 14 13 13 16 19 19 19 18 17 11
2 2 2 1 3 8 4 3 1 2 3 4 2 6 9 15 12 3 9 7 4 2 3 9 12 13 12 12 9 12 15 15 13 12 12 11 14 16 16 17 17 15 12 6
4 2 2 2 3 3 2 2 2 2 2 3 6 7 4 2 2 4 12 5 6 6 9 12 14 12 11 8 10 13 13 12 11 11 11 14 15 14 13 14 12 9 5 6
4 1 2 1 2 2 1 2 1 2 3 3 4 10 3 3 5 5 9 3 5 8 12 12 13 10 10 11 14 14 13 13 13 13 15 14 12 11 12 10 9 7 6 5
1 0 3 2 4 4 5 4 2 1 2 11 7 6 4 2 9 10 10 4 7 13 17 15 14 12 12 14 12 12 13 14 16 17 15 12 11 11 11 8 8 8 8 7
1 2 5 7 9 6 8 10 9 10 7 10 18 21 21 15 15 14 5 8 14 15 15 14 12 12 15 11 12 13 15 17 16 14 14 12 11 12 11 15 12 12 12 13
1 4 5 10 13 15 14 17 15 18 19 14 18 19 18 18 15 11 6 15 19 17 14 12 13 14 12 10 13 14 17 16 12 12 13 8 6 5 7 8 11 13 14 13
1 2 3 5 9 10 14 18 17 15 17 19 19 20 10 9 7 6 15 20 19 11 9 12 12 12 12 13 14 17 16 12 10 11 10 6 8 10 12 13 13 12 12 12
2 2 1 5 10 15 9 1 6 6 5 10 12 12 10 7 10 16 20 17 9 7 13 13 12 12 14 13 15 17 14 11 10 11 7 7 10 11 11 13 14 13 13 12
4 3 1 4 9 4 2 7 13 15 15 8 14 9 5 11 18 21 7 7 5 11 14 13 14 15 13 14 16 15 15 13 12 11 9 8 9 11 12 13 13 13 13 13
2 4 3 2 4 18 14 3 2 6 16 11 6 5 17 26 24 11 6 1 11 14 15 16 16 17 14 15 16 16 16 16 13 11 10 9 9 11 11 12 12 12 13 13
5 4 2 3 4 6 2 3 3 3 18 5 12 19 29 24 22 15 5 13 13 15 16 18 19 16 15 17 15 16 18 16 13 10 10 10 8 9 10 11 12 11 13 13
3 3 5 8 8 10 8 2 0 6 7 11 15 10 12 14 4 9 11 13 14 16 16 17 18 16 18 17 16 17 16 14 11 9 9 9 8 8 9 10 12 13 14 14
4 6 5 3 5 7 4 3 7 13 14 14 8 6 1 4 11 9 12 16 18 19 18 18 20 20 20 19 18 19 18 15 10 12 11 9 7 7 9 11 13 15 15 14
7 8 5 9 10 9 8 14 13 12 13 4 1 1 8 10 11 14 17 19 18 18 18 20 21 22 21 19 18 19 19 16 13 15 14 11 8 7 9 12 14 15 14 13
6 8 6 7 14 18 12 17 7 5 4 3 6 4 6 11 15 17 18 20 19 18 20 19 20 22 22 20 18 16 16 16 16 13 13 11 9 7 11 11 11 13 12 11
10 5 11 17 20 19 7 8 6 3 2 4 5 7 10 12 16 18 19 20 19 19 18 18 19 21 22 20 17 16 14 12 13 14 11 9 7 8 10 9 9 10 9 8
14 19 14 11 13 7 4 3 5 1 2 4 7 9 12 15 18 18 20 21 20 19 19 19 21 22 21 17 17 12 9 10 10 10 9 6 7 8 7 9 11 3 1 4
Wind_Direction
37 110 72 59 49 57 59 280 285 24 89 326 347 329 32 33 47 76 79 117 140 147 143 106 64 58 73 78 131 132 152 58 342 303 306 286 285 290 291 310 341 329 336 327
145 83 82 70 58 18 294 288 18 343 95 317 328 96 73 53 53 57 77 91 110 118 100 73 68 70 65 74 76 91 87 62 41 7 334 313 320 324 329 317 332 341 344 332
102 83 137 69 52 336 9 340 355 302 295 215 264 120 110 72 73 81 78 85 74 67 71 62 57 51 54 54 55 64 66 66 54 28 16 350 306 300 326 329 323 336 330 322
81 87 104 95 62 349 305 13 311 284 261 223 269 152 79 96 91 75 69 64 57 54 57 52 50 51 58 59 65 65 57 54 43 22 13 5 347 333 336 326 328 322 320 315
98 100 61 54 20 348 15 319 313 289 235 233 160 255 105 116 92 72 63 53 51 53 51 59 66 74 72 66 59 47 39 27 23 12 5 347 332 315 306 314 315 301 308 310
103 99 38 13 315 268 323 282 200 145 190 214 133 306 132 41 54 87 52 40 34 33 45 66 77 78 75 67 47 26 6 6 5 5 1 348 330 324 323 325 318 318 321 321
138 71 64 5 314 180 345 300 233 227 209 23 155 267 68 109 81 53 44 43 43 51 61 71 71 55 33 23 17 1 353 345 346 343 337 310 306 323 330 329 325 323 318 315
18 150 16 358 7 339 10 2 25 297 286 301 202 213 175 130 79 71 72 65 56 59 72 64 24 360 354 346 346 341 336 330 334 328 333 334 331 335 330 328 322 314 311 311
3 96 81 55 31 317 20 50 22 105 171 269 182 151 164 176 105 53 50 36 33 45 22 3 343 342 330 321 324 327 324 323 326 329 333 329 330 328 323 319 314 310 307 302
48 190 63 134 253 59 36 117 264 24 339 298 283 261 281 202 228 324 359 357 356 318 316 335 331 335 335 333 322 327 330 323 317 320 324 319 318 319 317 315 314 312 305 279
21 317 108 235 359 331 184 158 76 75 318 283 300 304 76 161 211 332 339 318 315 319 323 325 326 328 327 330 326 325 324 326 325 327 321 319 322 326 323 321 326 332 321 310
27 51 274 333 95 337 315 146 124 280 227 231 305 277 103 231 187 281 328 274 294 304 325 322 330 325 324 328 330 333 339 333 334 328 327 322 319 325 332 336 336 329 313 308
109 290 298 188 174 205 236 192 150 179 220 239 235 267 144 190 264 329 321 328 319 329 331 327 329 323 331 332 332 328 337 336 328 326 324 329 325 327 328 322 313 305 302 305
246 235 249 281 311 310 260 263 263 243 245 264 259 281 297 314 325 318 299 323 327 323 328 335 325 322 318 323 328 336 331 330 328 327 324 324 323 338 345 333 326 328 317 303
293 274 281 282 286 284 282 273 266 244 245 263 274 295 310 323 323 320 309 322 324 324 336 333 323 313 315 325 325 328 328 329 326 323 326 343 335 318 297 297 311 323 323 323
15 281 344 294 295 291 291 275 263 257 256 259 273 283 323 327 319 305 318 317 314 322 326 313 304 302 319 322 328 331 327 324 321 330 325 333 321 324 330 327 322 321 319 320
254 202 355 286 319 314 291 259 170 213 249 276 276 317 318 322 321 315 318 320 323 323 315 307 313 315 318 324 326 323 322 321 322 319 306 318 324 325 326 321 321 324 323 319
149 130 61 290 319 293 36 285 284 284 296 289 284 306 309 312 317 316 355 336 336 303 304 313 313 316 319 318 320 319 319 321 313 304 302 318 325 319 320 321 323 321 318 317
211 147 135 256 269 291 301 84 48 314 300 312 301 314 323 321 311 319 76 43 281 288 311 309 312 314 307 314 320 318 311 297 291 291 292 319 308 312 318 318 320 318 317 318
85 98 229 161 261 269 342 33 331 282 294 83 344 327 317 314 304 319 342 301 291 306 313 315 312 304 294 311 314 305 303 308 300 289 287 293 298 303 310 315 316 317 315 315
136 135 212 225 248 271 285 28 140 271 323 330 311 304 312 304 351 315 286 283 300 310 313 321 315 301 300 308 302 298 302 302 298 277 277 278 285 298 307 308 314 317 319 315
226 185 211 178 260 271 164 263 318 309 302 312 325 352 320 265 294 287 299 302 308 314 315 319 318 314 312 306 300 297 299 307 304 284 274 273 279 294 296 308 313 319 316 321
249 204 250 207 243 282 269 301 312 312 307 319 302 228 290 310 317 311 314 311 307 310 315 322 321 315 312 308 300 299 303 306 308 304 303 284 279 286 295 310 318 317 326 325
247 226 231 281 264 282 294 308 6 40 66 274 268 298 315 315 312 312 311 312 317 319 320 320 319 317 317 318 317 312 315 317 297 285 272 272 274 300 307 319 322 322 329 323
253 254 271 269 284 286 288 38 84 120 123 264 293 317 317 315 313 313 312 312 313 314 316 319 318 319 319 320 317 317 313 311 301 296 281 275 277 293 313 319 328 325 334 346
247 263 268 262 322 316 124 119 111 147 253 321 315 318 317 315 314 316 313 317 316 317 317 317 321 323 319 317 311 313 326 326 312 295 285 289 293 310 315 322 323 144 212 350